Hourly Data Report for December 07, 2021

WESTERN HEAD
NOVA SCOTIA
Current Station Operator: ECCC - MSC

43°59'24.070" N
64°39'51.008" W
10.10 m
8206240
71411
WWE

Download Data

Hourly Data (December 2021)
Hourly Data Report for December 7, 2021
TIME
LST
Temp Definition
°C
Dew Point Definition
°C
Rel Hum Definition
%
Precip. Amount Definition
mm

Wind Dir Definition
10's deg

Wind Spd Definition
km/h
Visibility Definition
km
Stn Press Definition
kPa
Hmdx Definition


Wind Chill Definition


Weather Definition


00:00 12.8 12.3 97 0.5 19 50   100.27     LegendNANA
01:00 12.7 12.3 97 0.0 20 49   100.04     LegendNANA
02:00 12.9 12.4 97 0.0 19 52   99.86     LegendNANA
03:00 13.0 12.4 96 3.5 20 63   99.89     LegendNANA
04:00 12.7 12.2 96 11.4 21 45   99.80     LegendNANA
05:00 9.3 7.9 91 0.6 28 36   99.98     LegendNANA
06:00 7.5 5.8 89 0.0 28 18   100.14     LegendNANA
07:00 7.1 5.2 88 0.0 27 23   100.29     LegendNANA
08:00 5.6 1.7 76 0.0 29 20   100.53     LegendNANA
09:00 4.9 1.5 79 0.0 27 16   100.83     LegendNANA
10:00 5.8 -0.8 62 0.0 28 24   101.03     LegendNANA
11:00 6.8 -1.9 54 0.0 27 23   101.08     LegendNANA
12:00 7.8 -3.0 46 0.0 26 27   101.09     LegendNANA
13:00 7.4 -6.4 37 0.0 28 24   101.15     LegendNANA
14:00 7.5 -6.5 36 0.0 27 22   101.20     LegendNANA
15:00 5.8 -7.1 39 0.0 29 22   101.33     LegendNANA
16:00 4.1 -7.5 43 0.0 29 17   101.45     LegendNANA
17:00 2.2 -7.0 50 0.0 30 11   101.52     LegendNANA
18:00 1.2 -6.3 57 0.0 27 10   101.62     LegendNANA
19:00 -0.1 -6.9 60 0.0 28 9   101.68   -3 LegendNANA
20:00 0.2 -7.1 58 0.0 30 8   101.77     LegendNANA
21:00 0.6 -8.4 51 0.0 30 10   101.85     LegendNANA
22:00 0.2 -9.0 50 0.0 30 8   101.86     LegendNANA
23:00 -0.7 -7.5 60 0.0 31 6   101.88   -3 LegendNANA

Notes on Data Quality.

Legend

  • E = Estimated
  • M = Missing
  • NA = Not Available*
  • [empty] = Indicates an unobserved value
Date modified: